Tracking 26442 objects as of 7-Dec-2022
HD Live streaming from Space Station
objects crossing your sky now

NOAA 16 DEB

Track NOAA 16 DEB now!
10-day predictions


NORAD ID: 41204
Int'l Code: 2000-055DH
Perigee: 847.3 km
Apogee: 880.4 km
Inclination: 98.8 °
Period: 102.1 minutes
Semi major axis: 7234 km
RCS: Unknown
Launch date: September 21, 2000
Source: United States (US)
Launch site: AIR FORCE WESTERN TEST RANGE (AFWTR)

Note: This is SATELLITE DEBRIS
aabbcc
Your satellite tracking list
Your tracking list is empty




NASA's NSSDC Master Catalog

Two Line Element Set (TLE):
1 41204U 00055DH  22340.47088945  .00001920  00000-0  10946-2 0  9991
2 41204  98.8005  45.6229 0022877 306.4342  53.4720 14.10786398359936
Source of the keplerian elements: AFSPC